Lid_Strength_Index
8 8 7 8 8 8 7 7 8 8 8 7 6 6 5 4 4 4 4 3 3 3 2 2 1 1 1 1 0 0 0 1 1 0 -0 0 0 0 -0 -0 -0 -0 0 0
9 8 7 8 7 7 7 7 7 7 8 5 5 5 5 5 4 4 4 4 3 3 2 2 2 1 1 1 1 0 1 1 0 0 0 0 0 0 0 0 0 0 0 0
11 8 8 10 8 7 7 7 7 8 7 6 6 5 5 4 4 4 4 3 3 3 2 2 2 1 1 1 0 1 1 0 1 0 1 1 0 0 1 1 0 1 0 0
10 9 14 9 6 7 7 7 6 6 6 6 5 4 4 3 4 4 3 3 2 2 2 1 1 1 1 1 1 1 1 1 1 1 1 1 1 1 1 1 1 1 1 0
15 14 10 8 7 8 8 8 6 6 6 5 4 4 5 3 3 3 3 2 1 1 1 1 1 1 1 1 1 1 1 1 1 1 1 1 1 1 1 1 1 1 1 1
13 14 13 8 6 5 5 9 5 5 5 5 5 8 6 3 3 3 2 1 2 2 1 1 1 1 1 1 1 2 1 1 1 1 1 1 1 2 1 1 1 1 1 1
10 11 9 7 6 5 10 10 5 5 5 5 6 5 4 3 3 2 2 2 1 1 1 1 1 1 2 1 2 1 1 0 1 1 1 1 1 1 1 1 1 1 1 1
9 11 12 5 6 8 7 4 4 4 4 4 4 4 3 3 3 3 2 2 2 2 2 1 1 1 2 2 1 1 0 1 1 1 1 1 1 1 1 2 2 2 2 2
9 9 6 5 5 4 4 4 4 4 3 3 4 4 3 3 3 3 2 1 1 2 1 1 1 1 2 1 1 1 1 1 1 1 1 1 1 1 2 1 2 2 3 4
8 7 6 5 4 3 3 4 3 3 3 3 4 3 3 3 3 3 2 2 2 2 2 2 1 1 1 0 0 0 1 1 1 1 1 1 1 1 2 2 3 4 4 5
7 6 5 5 4 3 3 3 3 3 3 3 3 3 3 3 3 2 2 2 2 2 2 2 1 1 0 0 0 1 1 1 1 1 1 1 1 1 2 1 4 5 5 7
7 5 5 5 4 3 3 3 3 3 3 3 3 3 3 3 2 2 2 2 2 2 2 2 1 1 1 1 1 1 1 1 2 2 2 3 3 2 3 4 6 8 8 9
5 3 4 3 3 2 3 3 3 3 3 3 2 2 2 3 2 3 2 2 2 2 1 1 1 1 1 1 1 1 2 2 2 3 4 4 4 4 4 3 5 7 8 9
3 3 5 4 4 3 3 3 3 2 2 2 2 2 2 2 2 2 2 2 1 1 1 1 1 1 1 2 2 2 3 5 2 3 3 4 4 4 4 5 6 4 6 8
3 3 3 3 3 3 2 2 3 3 3 3 2 2 2 2 2 3 2 1 1 1 1 1 1 1 1 2 2 3 3 4 3 3 3 4 3 3 4 5 6 6 5 6
3 3 3 4 3 3 3 3 3 3 3 2 2 2 3 2 2 2 1 1 2 2 1 1 1 1 1 2 3 3 3 4 4 3 3 3 3 3 3 3 4 5 7 7
4 5 4 4 4 3 3 3 3 2 2 2 3 2 2 2 2 2 1 1 1 1 1 1 2 1 1 2 3 3 3 3 3 3 3 4 4 5 4 4 4 4 5 7
3 3 3 3 3 3 3 3 2 2 3 2 2 2 2 3 3 2 1 1 0 1 1 2 2 1 2 2 2 3 3 3 3 3 3 4 4 4 5 5 5 5 5 5
2 3 3 3 2 3 3 3 3 2 2 2 2 3 2 2 2 1 1 1 1 2 2 2 3 2 2 2 2 2 3 3 3 3 3 4 4 4 5 5 5 5 5 5
3 2 2 2 2 2 3 2 2 2 2 2 2 3 3 2 1 1 1 2 1 1 0 1 1 2 1 1 2 2 3 3 3 3 3 3 3 4 4 6 4 4 4 4
3 3 3 3 3 2 2 2 2 3 2 2 2 2 2 2 1 1 2 2 1 1 2 1 0 1 2 2 3 3 3 3 4 4 3 3 3 3 3 3 3 3 3 3
3 3 3 3 3 3 2 2 2 2 2 2 2 1 1 2 1 1 2 3 3 5 3 2 2 4 3 3 2 3 3 3 2 3 3 3 3 3 3 3 3 3 3 3
3 3 3 3 3 2 2 2 2 2 2 2 1 1 2 3 3 4 4 3 3 4 3 3 7 4 4 2 2 2 2 2 3 2 3 2 2 2 2 3 3 3 3 3
3 2 2 2 2 2 3 2 2 1 1 1 1 1 2 3 3 3 2 4 5 5 4 5 6 5 5 2 2 2 2 1 1 1 1 4 2 2 3 2 3 3 3 4
2 2 2 2 3 3 2 2 1 1 1 1 1 1 1 2 3 2 3 3 5 4 3 5 5 5 3 2 2 2 2 2 2 2 2 3 3 2 3 4 4 3 2 3
2 3 2 2 2 2 2 2 2 2 2 2 2 2 1 1 1 2 2 3 2 4 3 3 2 2 2 2 2 2 2 1 1 2 3 2 2 2 3 4 3 3 3 4
2 4 2 2 2 1 1 1 2 2 2 2 2 1 1 1 2 3 5 3 3 2 2 2 1 2 1 2 2 2 1 1 3 2 2 2 2 2 2 3 3 4 4 4